"Period start","avg(HW err(1)/warn(2) (#))","avg(Visibility (m))","avg(Weather code (#))","avg(Precip intensity (mm/h))","min(HW err(1)/warn(2) (#))","max(HW err(1)/warn(2) (#))","std(HW err(1)/warn(2) (#))","med(HW err(1)/warn(2) (#))","min(Visibility (m))","max(Visibility (m))","std(Visibility (m))","med(Visibility (m))","min(Weather code (#))","max(Weather code (#))","std(Weather code (#))","med(Weather code (#))","min(Precip intensity (mm/h))","max(Precip intensity (mm/h))","std(Precip intensity (mm/h))","med(Precip intensity (mm/h))"
2014-08-09 00:00:00,0,40669,0,0.00,0,0,0,0,29912,47893,5475,41176,0,0,0,0,0.00,0.00,0.00,0.00
2014-08-09 00:10:00,0,44682,0,0.00,0,0,0,0,28779,50000,6242,46995,0,0,0,0,0.00,0.00,0.00,0.00
2014-08-09 00:20:00,0,37578,0,0.00,0,0,0,0,23645,50000,8076,38766,0,0,0,0,0.00,0.00,0.00,0.00
2014-08-09 00:30:00,0,39700,0,0.00,0,0,0,0,30658,47368,6038,40248,0,0,0,0,0.00,0.00,0.00,0.00
2014-08-09 00:40:00,0,39264,0,0.00,0,0,0,0,27033,50000,8064,40452,0,0,0,0,0.00,0.00,0.00,0.00
2014-08-09 00:50:00,0,45594,0,0.00,0,0,0,0,39260,50000,4787,48186,0,0,0,0,0.00,0.00,0.00,0.00
2014-08-09 01:00:00,0,39073,0,0.00,0,2,1,0,2234,50000,17727,47070,0,0,0,0,0.00,0.00,0.00,0.00
2014-08-09 01:10:00,1,16564,4,0.00,0,2,1,2,4299,31249,7800,15605,0,4,1,4,0.00,0.00,0.00,0.00
2014-08-09 01:20:00,1,11475,4,0.00,0,2,1,2,1976,45632,12957,6336,4,4,0,4,0.00,0.00,0.00,0.00
2014-08-09 01:30:00,1,40634,2,0.00,0,2,1,2,23939,50000,10108,44604,0,4,2,2,0.00,0.00,0.00,0.00
2014-08-09 01:40:00,0,47156,0,0.00,0,0,0,0,39129,50000,3935,50000,0,0,0,0,0.00,0.00,0.00,0.00
2014-08-09 01:50:00,0,38242,0,0.00,0,0,0,0,23812,50000,8304,36560,0,0,0,0,0.00,0.00,0.00,0.00
2014-08-09 02:00:00,0,42859,0,0.00,0,0,0,0,30250,50000,6014,42182,0,0,0,0,0.00,0.00,0.00,0.00
2014-08-09 02:10:00,0,45144,0,0.00,0,0,0,0,33962,50000,5758,48232,0,0,0,0,0.00,0.00,0.00,0.00
2014-08-09 02:20:00,0,42608,0,0.00,0,0,0,0,34259,50000,6270,40740,0,0,0,0,0.00,0.00,0.00,0.00
2014-08-09 02:30:00,0,43701,0,0.00,0,0,0,0,30353,50000,7349,49036,0,0,0,0,0.00,0.00,0.00,0.00
2014-08-09 02:40:00,0,43872,0,0.00,0,0,0,0,34204,50000,5979,45120,0,0,0,0,0.00,0.00,0.00,0.00
2014-08-09 02:50:00,0,38273,0,0.00,0,0,0,0,16725,49141,9202,39449,0,0,0,0,0.00,0.00,0.00,0.00
2014-08-09 03:00:00,0,45537,0,0.00,0,0,0,0,36363,50000,4167,46268,0,0,0,0,0.00,0.00,0.00,0.00
2014-08-09 03:10:00,0,47993,0,0.00,0,0,0,0,39844,50000,3254,50000,0,0,0,0,0.00,0.00,0.00,0.00
2014-08-09 03:20:00,0,43180,0,0.00,0,0,0,0,37597,50000,3829,41459,0,0,0,0,0.00,0.00,0.00,0.00
2014-08-09 03:30:00,0,46454,0,0.00,0,0,0,0,41497,50000,3233,46476,0,0,0,0,0.00,0.00,0.00,0.00
2014-08-09 03:40:00,0,44914,0,0.00,0,0,0,0,36146,50000,3655,45482,0,0,0,0,0.00,0.00,0.00,0.00
2014-08-09 03:50:00,0,46201,0,0.00,0,0,0,0,36680,50000,4319,47870,0,0,0,0,0.00,0.00,0.00,0.00
2014-08-09 04:00:00,0,48814,0,0.00,0,0,0,0,43614,50000,2006,49968,0,0,0,0,0.00,0.00,0.00,0.00
2014-08-09 04:10:00,0,43435,0,0.00,0,0,0,0,36604,50000,4724,44702,0,0,0,0,0.00,0.00,0.00,0.00
2014-08-09 04:20:00,0,44556,0,0.00,0,0,0,0,36911,50000,5202,46451,0,0,0,0,0.00,0.00,0.00,0.00
2014-08-09 04:30:00,0,45223,0,0.00,0,0,0,0,37776,50000,4291,47254,0,0,0,0,0.00,0.00,0.00,0.00
2014-08-09 04:40:00,0,48324,0,0.00,0,0,0,0,41098,50000,3211,50000,0,0,0,0,0.00,0.00,0.00,0.00
2014-08-09 04:50:00,0,45375,0,0.00,0,0,0,0,39875,50000,3590,44870,0,0,0,0,0.00,0.00,0.00,0.00
2014-08-09 05:00:00,0,47503,0,0.00,0,0,0,0,42175,50000,2710,48537,0,0,0,0,0.00,0.00,0.00,0.00
2014-08-09 05:10:00,0,49389,0,0.00,0,0,0,0,46990,50000,968,50000,0,0,0,0,0.00,0.00,0.00,0.00
2014-08-09 05:20:00,0,48794,0,0.00,0,0,0,0,43964,50000,1915,49798,0,0,0,0,0.00,0.00,0.00,0.00
2014-08-09 05:30:00,0,47048,0,0.00,0,0,0,0,39678,50000,3410,48204,0,0,0,0,0.00,0.00,0.00,0.00
2014-08-09 05:40:00,0,48870,0,0.00,0,0,0,0,40729,50000,2742,50000,0,0,0,0,0.00,0.00,0.00,0.00
2014-08-09 05:50:00,0,48780,0,0.00,0,0,0,0,44817,50000,1643,49682,0,0,0,0,0.00,0.00,0.00,0.00
2014-08-09 06:00:00,0,49784,0,0.00,0,0,0,0,48286,50000,517,50000,0,0,0,0,0.00,0.00,0.00,0.00
2014-08-09 06:10:00,0,48571,0,0.00,0,0,0,0,45271,50000,1804,49680,0,0,0,0,0.00,0.00,0.00,0.00
2014-08-09 06:20:00,0,49957,0,0.00,0,0,0,0,49566,50000,130,50000,0,0,0,0,0.00,0.00,0.00,0.00
2014-08-09 06:30:00,0,25822,1,0.00,0,0,0,0,1173,50000,22014,26216,0,4,2,0,0.00,0.00,0.00,0.00
2014-08-09 06:40:00,0,11716,4,0.00,0,0,0,0,3702,18664,4462,10678,4,4,0,4,0.00,0.00,0.00,0.00
2014-08-09 06:50:00,0,31577,1,0.00,0,0,0,0,13525,50000,13904,32462,0,4,2,0,0.00,0.00,0.00,0.00
2014-08-09 07:00:00,0,49929,0,0.00,0,0,0,0,49293,50000,212,50000,0,0,0,0,0.00,0.00,0.00,0.00
2014-08-09 07:10:00,0,47343,0,0.00,0,0,0,0,39950,50000,3422,48902,0,0,0,0,0.00,0.00,0.00,0.00
2014-08-09 07:20:00,0,48028,0,0.00,0,0,0,0,41838,50000,2716,50000,0,0,0,0,0.00,0.00,0.00,0.00
2014-08-09 07:30:00,0,48128,0,0.00,0,0,0,0,36020,50000,4276,50000,0,0,0,0,0.00,0.00,0.00,0.00
2014-08-09 07:40:00,0,24033,0,0.00,0,0,0,0,10331,49798,14859,18295,0,0,0,0,0.00,0.00,0.00,0.00
2014-08-09 07:50:00,0,29284,0,0.00,0,0,0,0,11053,50000,12683,30817,0,0,0,0,0.00,0.00,0.00,0.00
2014-08-09 08:00:00,0,49626,0,0.00,0,0,0,0,46890,50000,931,50000,0,0,0,0,0.00,0.00,0.00,0.00
2014-08-09 08:10:00,0,48223,0,0.00,0,0,0,0,39397,50000,3493,50000,0,0,0,0,0.00,0.00,0.00,0.00
2014-08-09 08:20:00,0,30516,0,0.00,0,0,0,0,15554,47417,10758,24672,0,0,0,0,0.00,0.00,0.00,0.00
2014-08-09 08:30:00,0,20587,0,0.00,0,0,0,0,4439,38798,11602,22002,0,0,0,0,0.00,0.00,0.00,0.00
2014-08-09 08:40:00,0,35237,0,0.00,0,0,0,0,26228,48046,7033,34848,0,0,0,0,0.00,0.00,0.00,0.00
2014-08-09 08:50:00,0,49026,0,0.00,0,0,0,0,45071,50000,1631,50000,0,0,0,0,0.00,0.00,0.00,0.00
2014-08-09 09:00:00,0,49823,0,0.00,0,0,0,0,48702,50000,399,50000,0,0,0,0,0.00,0.00,0.00,0.00
2014-08-09 09:10:00,0,49360,0,0.00,0,0,0,0,43598,50000,1921,50000,0,0,0,0,0.00,0.00,0.00,0.00
2014-08-09 09:20:00,0,49709,0,0.00,0,0,0,0,48704,50000,439,50000,0,0,0,0,0.00,0.00,0.00,0.00
2014-08-09 09:30:00,0,41853,0,0.00,0,0,0,0,7801,50000,12784,46683,0,0,0,0,0.00,0.00,0.00,0.00
2014-08-09 09:40:00,0,9409,2,0.00,0,0,0,0,946,34836,12716,3174,0,4,2,0,0.00,0.00,0.00,0.00
2014-08-09 09:50:00,0,2378,6,0.00,0,0,0,0,838,5604,1402,1897,4,10,3,4,0.00,0.00,0.00,0.00
2014-08-09 10:00:00,0,35552,10,0.00,0,0,0,0,4814,50000,17169,43440,10,10,0,10,0.00,0.00,0.00,0.00
2014-08-09 10:10:00,0,8569,5,0.00,0,0,0,0,1095,29009,9250,3320,0,10,5,5,0.00,0.00,0.00,0.00
2014-08-09 10:20:00,0,1177,10,0.00,0,0,0,0,505,1482,313,1251,10,10,0,10,0.00,0.00,0.00,0.00
2014-08-09 10:30:00,0,714,26,0.00,0,0,0,0,424,1515,344,552,10,34,11,34,0.00,0.00,0.00,0.00
2014-08-09 10:40:00,0,850,34,0.00,0,0,0,0,465,1490,335,743,34,34,0,34,0.00,0.00,0.00,0.00
2014-08-09 10:50:00,1,545,34,0.00,0,2,1,0,409,663,88,568,34,34,0,34,0.00,0.00,0.00,0.00
2014-08-09 11:00:00,0,425,34,0.00,0,2,1,0,284,663,125,364,34,34,0,34,0.00,0.00,0.00,0.00
2014-08-09 11:10:00,0,396,34,0.00,0,0,0,0,331,484,43,392,34,34,0,34,0.00,0.00,0.00,0.00
2014-08-09 11:20:00,0,400,34,0.00,0,0,0,0,328,470,61,410,34,34,0,34,0.00,0.00,0.00,0.00
2014-08-09 11:30:00,0,449,34,0.00,0,0,0,0,307,566,84,439,34,34,0,34,0.00,0.00,0.00,0.00
2014-08-09 11:40:00,0,360,33,0.00,0,0,0,0,239,489,80,354,33,33,0,33,0.00,0.00,0.00,0.00
2014-08-09 11:50:00,0,423,33,0.00,0,0,0,0,344,505,51,450,33,33,0,33,0.00,0.00,0.00,0.00
2014-08-09 12:00:00,0,375,33,0.00,0,0,0,0,300,493,55,361,33,33,0,33,0.00,0.00,0.00,0.00
2014-08-09 12:10:00,0,345,33,0.00,0,0,0,0,265,436,51,336,33,33,0,33,0.00,0.00,0.00,0.00
2014-08-09 12:20:00,0,448,33,0.00,0,0,0,0,371,587,65,433,33,33,0,33,0.00,0.00,0.00,0.00
2014-08-09 12:30:00,0,392,33,0.00,0,0,0,0,268,490,81,410,30,33,1,33,0.00,0.00,0.00,0.00
2014-08-09 12:40:00,0,488,33,0.00,0,0,0,0,381,666,78,465,33,33,0,33,0.00,0.00,0.00,0.00
2014-08-09 12:50:00,0,313,33,0.00,0,0,0,0,266,405,40,314,33,33,0,33,0.00,0.00,0.00,0.00
2014-08-09 13:00:00,0,270,34,0.00,0,0,0,0,204,330,32,268,33,34,0,34,0.00,0.00,0.00,0.00
2014-08-09 13:10:00,0,419,34,0.00,0,0,0,0,234,740,179,316,34,34,0,34,0.00,0.00,0.00,0.00
2014-08-09 13:20:00,0,378,33,0.00,0,0,0,0,249,536,81,382,30,34,1,33,0.00,0.00,0.00,0.00
2014-08-09 13:30:00,0,305,33,0.00,0,0,0,0,240,435,60,280,33,33,0,33,0.00,0.00,0.00,0.00
2014-08-09 13:40:00,0,356,33,0.00,0,0,0,0,280,483,65,346,33,33,0,33,0.00,0.00,0.00,0.00
2014-08-09 13:50:00,0,616,33,0.00,0,0,0,0,331,1285,265,554,33,33,0,33,0.00,0.00,0.00,0.00
2014-08-09 14:00:00,0,262,32,0.00,0,0,0,0,222,353,39,252,30,33,1,33,0.00,0.00,0.00,0.00
2014-08-09 14:10:00,0,316,33,0.00,0,0,0,0,261,383,39,311,33,33,0,33,0.00,0.00,0.00,0.00
2014-08-09 14:20:00,0,340,32,0.00,0,0,0,0,274,430,58,332,30,33,1,33,0.00,0.00,0.00,0.00
2014-08-09 14:30:00,0,477,33,0.00,0,0,0,0,347,763,140,450,33,33,0,33,0.00,0.00,0.00,0.00
2014-08-09 14:40:00,0,297,33,0.00,0,0,0,0,247,364,37,282,33,33,0,33,0.00,0.00,0.00,0.00
2014-08-09 14:50:00,0,260,33,0.00,0,0,0,0,251,271,7,262,33,33,0,33,0.00,0.00,0.00,0.00
2014-08-09 15:00:00,0,270,33,0.00,0,0,0,0,258,283,7,268,33,33,0,33,0.00,0.00,0.00,0.00
2014-08-09 15:10:00,0,242,33,0.00,0,0,0,0,234,252,6,240,33,33,0,33,0.00,0.00,0.00,0.00
2014-08-09 15:20:00,0,244,33,0.00,0,0,0,0,225,271,12,243,33,33,0,33,0.00,0.00,0.00,0.00
2014-08-09 15:30:00,0,266,33,0.00,0,0,0,0,213,332,37,250,33,33,0,33,0.00,0.00,0.00,0.00
2014-08-09 15:40:00,0,203,33,0.00,0,0,0,0,192,219,8,204,33,34,0,33,0.00,0.00,0.00,0.00
2014-08-09 15:50:00,0,199,34,0.00,0,0,0,0,191,226,13,194,34,34,0,34,0.00,0.00,0.00,0.00
2014-08-09 16:00:00,0,271,34,0.00,0,0,0,0,233,326,33,266,30,34,1,34,0.00,0.00,0.00,0.00
2014-08-09 16:10:00,0,245,30,0.00,0,0,0,0,218,348,36,234,30,30,0,30,0.00,0.00,0.00,0.00
2014-08-09 16:20:00,0,578,33,0.00,0,0,0,0,270,940,235,562,33,33,0,33,0.00,0.00,0.00,0.00
2014-08-09 16:30:00,0,518,32,0.00,0,0,0,0,295,1129,253,398,32,32,0,32,0.00,0.00,0.00,0.00
2014-08-09 16:40:00,0,229,32,0.00,0,0,0,0,198,257,20,230,32,33,0,32,0.00,0.00,0.00,0.00
2014-08-09 16:50:00,0,201,33,0.00,0,0,0,0,192,211,6,200,33,33,0,33,0.00,0.00,0.00,0.00
2014-08-09 17:00:00,0,202,34,0.00,0,0,0,0,193,212,7,204,33,34,0,34,0.00,0.00,0.00,0.00
2014-08-09 17:10:00,0,206,34,0.00,0,0,0,0,198,229,9,202,34,34,0,34,0.00,0.00,0.00,0.00
2014-08-09 17:20:00,0,195,34,0.00,0,0,0,0,170,218,18,198,34,34,0,34,0.00,0.00,0.00,0.00
2014-08-09 17:30:00,0,172,34,0.00,0,0,0,0,167,183,4,172,34,34,0,34,0.00,0.00,0.00,0.00
2014-08-09 17:40:00,0,194,33,0.00,0,0,0,0,172,208,12,200,33,33,0,33,0.00,0.00,0.00,0.00
2014-08-09 17:50:00,0,220,33,0.00,0,0,0,0,195,252,19,212,33,33,0,33,0.00,0.00,0.00,0.00
2014-08-09 18:00:00,0,211,33,0.00,0,0,0,0,204,222,6,210,33,33,0,33,0.00,0.00,0.00,0.00
2014-08-09 18:10:00,0,228,33,0.00,0,0,0,0,217,240,9,227,33,33,0,33,0.00,0.00,0.00,0.00
2014-08-09 18:20:00,0,234,31,0.00,0,0,0,0,220,244,7,235,30,33,1,30,0.00,0.00,0.00,0.00
2014-08-09 18:30:00,0,272,59,8.55,0,0,0,0,253,293,12,274,33,62,9,61,0.00,19.05,6.57,6.33
2014-08-09 18:40:00,0,241,61,5.85,0,0,0,0,205,290,31,236,61,62,0,61,0.75,13.85,4.61,4.03
2014-08-09 18:50:00,0,299,51,3.65,0,0,0,0,268,336,20,301,51,52,0,51,0.70,4.95,1.36,4.18
2014-08-09 19:00:00,0,271,51,3.34,0,0,0,0,255,288,12,271,51,51,0,51,1.45,5.25,1.27,3.42
2014-08-09 19:10:00,0,292,51,2.57,0,0,0,0,230,337,31,300,51,51,0,51,0.65,5.35,1.50,2.17
2014-08-09 19:20:00,0,373,60,5.62,0,0,0,0,257,510,95,368,51,62,3,61,0.20,11.60,3.68,5.77
2014-08-09 19:30:00,0,362,54,1.98,0,0,0,0,284,505,73,338,51,61,5,51,0.00,4.40,1.78,1.45
2014-08-09 19:40:00,0,357,49,0.88,0,0,0,0,284,478,54,344,30,51,6,51,0.00,4.15,1.38,0.10
2014-08-09 19:50:00,0,602,31,0.00,0,0,0,0,492,822,97,578,30,32,1,32,0.00,0.00,0.00,0.00
2014-08-09 20:00:00,0,1672,31,0.00,0,0,0,0,809,3893,826,1556,20,32,4,32,0.00,0.00,0.00,0.00
2014-08-09 20:10:00,0,8067,20,0.00,0,0,0,0,1003,16517,5585,8728,20,20,0,20,0.00,0.00,0.00,0.00
2014-08-09 20:20:00,0,13661,20,0.00,0,0,0,0,8585,17675,2715,13498,20,20,0,20,0.00,0.00,0.00,0.00
2014-08-09 20:30:00,0,5085,20,0.00,0,0,0,0,2116,14662,3403,4244,20,20,0,20,0.00,0.00,0.00,0.00
2014-08-09 20:40:00,0,2733,20,0.00,0,0,0,0,981,6333,1813,1770,20,20,0,20,0.00,0.00,0.00,0.00
2014-08-09 20:50:00,0,1200,21,0.00,0,0,0,0,654,2810,626,934,20,30,3,20,0.00,0.00,0.00,0.00
2014-08-09 21:00:00,0,1062,31,0.00,0,0,0,0,440,2567,685,708,30,34,2,30,0.00,0.00,0.00,0.00
2014-08-09 21:10:00,0,537,34,0.00,0,0,0,0,392,712,95,519,34,34,0,34,0.00,0.00,0.00,0.00
2014-08-09 21:20:00,0,972,34,0.00,0,0,0,0,461,1376,353,920,34,34,0,34,0.00,0.00,0.00,0.00
2014-08-09 21:30:00,0,521,34,0.00,0,0,0,0,337,909,184,472,30,34,1,34,0.00,0.00,0.00,0.00
2014-08-09 21:40:00,0,433,34,0.00,0,0,0,0,281,606,130,367,34,34,0,34,0.00,0.00,0.00,0.00
2014-08-09 21:50:00,0,1048,34,0.00,0,0,0,0,275,5381,1454,565,34,34,0,34,0.00,0.00,0.00,0.00
2014-08-09 22:00:00,0,2389,32,0.00,0,0,0,0,460,8293,3029,612,31,34,1,31,0.00,0.00,0.00,0.00
2014-08-09 22:10:00,0,31219,31,0.00,0,0,0,0,5614,47678,15127,38659,31,31,0,31,0.00,0.00,0.00,0.00
2014-08-09 22:20:00,0,45931,31,0.00,0,0,0,0,40906,50000,2916,46698,31,31,0,31,0.00,0.00,0.00,0.00
2014-08-09 22:30:00,0,48692,22,0.00,0,0,0,0,42633,50000,2336,49898,20,31,4,20,0.00,0.00,0.00,0.00
2014-08-09 22:40:00,0,47273,20,0.00,0,0,0,0,43260,50000,2511,48232,20,20,0,20,0.00,0.00,0.00,0.00
2014-08-09 22:50:00,0,43948,20,0.00,0,0,0,0,34816,50000,5112,44166,20,20,0,20,0.00,0.00,0.00,0.00
2014-08-09 23:00:00,0,40481,20,0.00,0,0,0,0,35298,46347,2863,40510,20,20,0,20,0.00,0.00,0.00,0.00
2014-08-09 23:10:00,0,44833,20,0.00,0,0,0,0,33118,50000,6304,47245,20,20,0,20,0.00,0.00,0.00,0.00
"Period start","avg(HW err(1)/warn(2) (#))","avg(Visibility (m))","avg(Weather code (#))","avg(Precip intensity (mm/h))","min(HW err(1)/warn(2) (#))","max(HW err(1)/warn(2) (#))","std(HW err(1)/warn(2) (#))","med(HW err(1)/warn(2) (#))","min(Visibility (m))","max(Visibility (m))","std(Visibility (m))","med(Visibility (m))","min(Weather code (#))","max(Weather code (#))","std(Weather code (#))","med(Weather code (#))","min(Precip intensity (mm/h))","max(Precip intensity (mm/h))","std(Precip intensity (mm/h))","med(Precip intensity (mm/h))"
2014-08-09 23:20:00,0,46921,14,0.00,0,0,0,0,43659,50000,2309,46122,0,20,9,20,0.00,0.00,0.00,0.00
2014-08-09 23:30:00,0,46372,0,0.00,0,0,0,0,36955,50000,4005,47527,0,0,0,0,0.00,0.00,0.00,0.00
2014-08-09 23:40:00,0,38691,0,0.00,0,0,0,0,32062,50000,4931,37122,0,0,0,0,0.00,0.00,0.00,0.00
2014-08-09 23:50:00,0,46728,0,0.00,0,0,0,0,40599,50000,3128,47649,0,0,0,0,0.00,0.00,0.00,0.00
